F1ZUI-13 Weather Reports


time (UTC)temp
F
wind
direction
speed
knots
gust
knots
rain 1hr
in
rain 24hr
in
rain mn
in
humidity
%
barometer
mb
20260506134726 60 270 5.2 0.0 0.00 0.00 0.00 1015.9
20260506133712 61 270 5.2 0.0 0.00 0.00 0.00 1015.8
20260506132658 57 270 4.3 0.0 0.00 0.00 0.00 1015.7
20260506131645 55 270 2.6 0.0 0.00 0.00 0.00 1015.7
20260506130631 55 270 5.2 0.0 0.00 0.00 0.00 1015.5
20260506125617 53 270 8.7 0.0 0.00 0.00 0.00 1015.4
20260506124604 53 225 7.8 0.0 0.00 0.00 0.00 1015.4
20260506123550 55 270 7.8 0.0 0.00 0.00 0.00 1015.3
20260506122537 54 225 7.8 0.0 0.00 0.00 0.00 1015.3
20260506121523 54 225 7.0 0.0 0.00 0.00 0.00 1015.4
20260506120509 56 270 2.6 0.0 0.00 0.00 0.00 1015.4
20260506115456 54 270 3.5 0.0 0.00 0.00 0.00 1015.4
20260506114442 54 270 10.4 0.0 0.00 0.00 0.00 1015.3
20260506113428 54 225 7.0 0.0 0.00 0.00 0.00 1015.3
20260506112415 55 270 6.1 0.0 0.00 0.00 0.00 1015.4
20260506111401 55 225 5.2 0.0 0.00 0.00 0.00 1015.4
20260506110348 56 225 9.6 0.0 0.00 0.00 0.00 1015.2
20260506105334 56 225 7.0 0.0 0.00 0.00 0.00 1015.3
20260506104320 56 225 9.6 0.0 0.00 0.00 0.00 1015.2
20260506103307 56 270 5.2 0.0 0.00 0.00 0.00 1015.2
20260506102253 58 225 4.3 0.0 0.00 0.00 0.00 1015.2
20260506101239 58 225 7.0 0.0 0.00 0.00 0.00 1015.1
20260506100226 56 225 7.8 0.0 0.00 0.00 0.00 1015.2
20260506095212 56 225 8.7 0.0 0.00 0.00 0.00 1015.1
20260506094158 55 270 6.1 0.0 0.00 0.00 0.00 1015.1
20260506093145 58 270 8.7 0.0 0.00 0.00 0.00 1015.0
20260506092131 56 270 7.8 0.0 0.00 0.00 0.00 1014.8
20260506091118 56 225 7.0 0.0 0.00 0.00 0.00 1014.6
20260506090104 56 225 6.1 0.0 0.00 0.00 0.00 1014.8
20260506085050 57 225 11.3 0.0 0.00 0.00 0.00 1014.6
20260506084037 55 270 8.7 0.0 0.00 0.00 0.00 1014.6
20260506083023 57 270 6.1 0.0 0.00 0.00 0.00 1014.6
20260506082009 61 225 8.7 0.0 0.00 0.00 0.00 1014.5
20260506080956 59 225 7.0 0.0 0.00 0.00 0.00 1014.5
20260506072901 52 225 7.8 0.0 0.00 0.00 0.00 1014.2
20260506071848 51 225 8.7 0.0 0.00 0.00 0.00 1014.4
20260506070834 55 225 7.8 0.0 0.00 0.00 0.00 1014.3
20260506061726 46 270 8.7 0.0 0.00 0.00 0.00 1014.0
20260506060712 47 270 9.6 0.0 0.00 0.00 0.00 1013.9
20260506050551 45 270 8.7 0.0 0.00 0.00 0.00 1013.7
20260506044458 45 270 10.4 0.0 0.00 0.00 0.00 1013.5
20260506043445 45 270 7.8 0.0 0.00 0.00 0.00 1013.5
20260506042431 46 270 7.0 0.0 0.00 0.00 0.00 1013.5
20260506041418 45 225 7.0 0.0 0.00 0.00 0.00 1013.5
20260506040404 43 270 6.1 0.0 0.00 0.00 0.00 1013.5
20260506032647 45 270 6.1 0.0 0.00 0.00 0.00 1013.8
20260506031633 45 270 12.2 0.0 0.00 0.00 0.00 1013.7
20260506030619 45 225 6.1 0.0 0.00 0.00 0.00 1013.7
20260506025606 45 225 10.4 0.0 0.00 0.00 0.00 1013.8
20260506024552 46 225 9.6 0.0 0.00 0.00 0.00 1013.7
20260506023539 45 270 6.1 0.0 0.00 0.00 0.00 1013.7
20260506022525 45 225 11.3 0.0 0.00 0.00 0.00 1013.8
20260506021511 45 270 7.8 0.0 0.00 0.00 0.00 1013.7
20260506020458 45 270 7.0 0.0 0.00 0.00 0.00 1013.9
20260506015444 46 225 10.4 0.0 0.00 0.00 0.00 1013.8
20260506014430 46 225 8.7 0.0 0.00 0.00 0.00 1014.1
20260506013417 46 270 5.2 0.0 0.00 0.00 0.00 1014.2
20260506012403 46 225 9.6 0.0 0.00 0.00 0.00 1013.9
20260506011350 46 225 10.4 0.0 0.00 0.00 0.00 1014.2
20260506010336 46 270 5.2 0.0 0.00 0.00 0.00 1014.2
20260506005322 45 225 7.0 0.0 0.00 0.00 0.00 1014.3
20260506004309 46 225 5.2 0.0 0.00 0.00 0.00 1014.3
20260506003256 46 270 3.5 0.0 0.00 0.00 0.00 1014.6
20260506002241 46 225 1.7 0.0 0.00 0.00 0.00 1014.6
20260506001228 46 270 3.5 0.0 0.00 0.00 0.00 1014.8
20260506000214 46 0.0 0.0 0.00 0.00 0.00 1014.9
20260505235201 46 270 6.1 0.0 0.00 0.00 0.00 1014.8
20260505234147 46 270 6.1 0.0 0.00 0.00 0.00 1014.9
20260505233133 46 270 7.0 0.0 0.00 0.00 0.00 1015.0
20260505232120 46 225 5.2 0.0 0.00 0.00 0.00 1014.9
20260505231106 46 270 9.6 0.0 0.00 0.00 0.00 1014.9
20260505230052 46 270 7.0 0.0 0.00 0.00 0.00 1014.9
20260505225039 46 225 11.3 0.0 0.00 0.00 0.00 1014.7
20260505224025 46 270 5.2 0.0 0.00 0.00 0.00 1014.8
20260505222859 46 270 2.6 0.0 0.00 0.00 0.00 1015.0
20260505221846 46 270 7.0 0.0 0.00 0.00 0.00 1015.0
20260505220832 46 270 5.2 0.0 0.00 0.00 0.00 1015.1
20260505215819 47 270 3.5 0.0 0.00 0.00 0.00 1015.0
20260505214805 47 270 5.2 0.0 0.00 0.00 0.00 1015.1
20260505213751 47 270 7.8 0.0 0.00 0.00 0.00 1015.0
20260505212738 47 225 7.0 0.0 0.00 0.00 0.00 1015.0
20260505211724 47 270 7.8 0.0 0.00 0.00 0.00 1015.2
20260505210711 47 270 7.0 0.0 0.00 0.00 0.00 1015.3
20260505205657 47 270 7.8 0.0 0.00 0.00 0.00 1015.2
20260505204643 47 270 10.4 0.0 0.00 0.00 0.00 1015.2
20260505203630 47 270 5.2 0.0 0.00 0.00 0.00 1015.2
20260505202616 47 270 4.3 0.0 0.00 0.00 0.00 1015.1
20260505201602 47 270 2.6 0.0 0.00 0.00 0.00 1015.0
20260505200549 48 270 6.1 0.0 0.00 0.00 0.00 1014.8
20260505195535 48 270 5.2 0.0 0.00 0.00 0.00 1014.9
20260505194521 48 270 7.0 0.0 0.00 0.00 0.00 1014.9
20260505193508 48 270 7.8 0.0 0.00 0.00 0.00 1014.8
20260505192454 48 270 9.6 0.0 0.00 0.00 0.00 1014.6
20260505191441 48 270 4.3 0.0 0.00 0.00 0.00 1014.6
20260505190427 48 225 7.0 0.0 0.00 0.00 0.00 1014.5
20260505185413 49 225 8.7 0.0 0.00 0.00 0.00 1014.5
20260505184400 49 270 10.4 0.0 0.00 0.00 0.00 1014.5
20260505183346 50 270 5.2 0.0 0.00 0.00 0.00 1014.6
20260505182332 51 225 3.5 0.0 0.00 0.00 0.00 1014.6
20260505181319 52 225 4.3 0.0 0.00 0.00 0.00 1014.6
20260505180305 52 225 3.5 0.0 0.00 0.00 0.00 1014.6
20260505175252 53 315 1.7 0.0 0.00 0.00 0.00 1014.7
20260505174238 52 270 4.3 0.0 0.00 0.00 0.00 1014.7
20260505173224 53 270 3.5 0.0 0.00 0.00 0.00 1014.6
20260505172211 53 270 6.1 0.0 0.00 0.00 0.00 1014.6
20260505171157 54 270 3.5 0.0 0.00 0.00 0.00 1014.6
20260505170143 55 0.0 0.0 0.00 0.00 0.00 1014.8
20260505165130 57 225 1.7 0.0 0.00 0.00 0.00 1014.8
20260505164116 58 0.0 0.0 0.00 0.00 0.00 1014.8
20260505163102 58 0.0 0.0 0.00 0.00 0.00 1014.8
20260505162049 59 0.0 0.0 0.00 0.00 0.00 1014.8
20260505161035 58 0 2.6 0.0 0.00 0.00 0.00 1014.7
20260505152941 55 0.0 0.0 0.00 0.00 0.00 1015.0
20260505151927 54 225 1.7 0.0 0.00 0.00 0.00 1014.9
20260505150913 53 315 7.8 0.0 0.00 0.00 0.00 1015.0